Location: downtown San Diego
(32.7310°N, 117.1990°W)
Time: 16:36:46
(UTC-07:00)

Cosmos 1048 Rocket - Pass Details

Date: 14 June 2018
Orbit: 744 x 791 km, 74.0° (Epoch: 19 October)

Event Time Altitude Azimuth Distance (km) Brightness Sun altitude
Exits shadow 22:15:04 58° 144° (SE) 898 3.9 -23.0°
Maximum altitude 22:15:45 65° 104° (ESE) 852 3.9 -23.1°
Drops below altitude 10° 22:21:01 10° 23° (NNE) 2,341 6.9 -23.7°
Sets 22:23:27 0° 21° (NNE) 3,279 7.7 -24.0°
